This is the latest recevied weather packets stored in our database for station/object AA8FM-13. If no packets are shown the sender has not sent any weather packets the latest 1 day(s).
| Time | Temp. | Humidity | Pressure | Rain* | Wind** | Luminosity | Snow |
|---|---|---|---|---|---|---|---|
| 1778008441 | 23.89° C | 44% | 1007.1 hPa | 0 mm | 3.13 m/s, 50° | 322 W/m² | - |
| 1778008138 | 23.89° C | 43% | 1007.3 hPa | 0 mm | 3.58 m/s, 109° | 402 W/m² | - |
| 1778007833 | 23.89° C | 44% | 1007.1 hPa | 0 mm | 1.34 m/s, 4° | 376 W/m² | - |
| 1778007528 | 23.89° C | 45% | 1007.2 hPa | 0 mm | 0.45 m/s, 339° | 395 W/m² | - |
| 1778007225 | 23.89° C | 43% | 1007.2 hPa | 0 mm | 1.79 m/s, 70° | 385 W/m² | - |
| 1778006921 | 23.89° C | 46% | 1007.4 hPa | 0 mm | 0.89 m/s, 152° | 365 W/m² | - |
| 1778006619 | 23.89° C | 47% | 1007.1 hPa | 0 mm | 1.79 m/s, 142° | 350 W/m² | - |
| 1778006316 | 23.89° C | 45% | 1007.4 hPa | 0 mm | 2.68 m/s, 171° | 279 W/m² | - |
| 1778006012 | 24.44° C | 44% | 1007.6 hPa | 0 mm | 0 m/s | 390 W/m² | - |
| 1778005709 | 24.44° C | 46% | 1007.2 hPa | 0 mm | 0.89 m/s, 134° | 369 W/m² | - |
| 1778005406 | 24.44° C | 45% | 1007.4 hPa | 0 mm | 1.34 m/s, 150° | 397 W/m² | - |
| 1778005103 | 23.89° C | 47% | 1007.2 hPa | 0 mm | 0.45 m/s, 226° | 431 W/m² | - |
| 1778004800 | 24.44° C | 45% | 1006.9 hPa | 0 mm | 1.34 m/s, 142° | 377 W/m² | - |
| 1778004496 | 24.44° C | 44% | 1007.1 hPa | 0 mm | 2.68 m/s, 152° | 521 W/m² | - |
| 1778004193 | 24.44° C | 47% | 1006.9 hPa | 0 mm | 0.89 m/s, 34° | 613 W/m² | - |
| 1778003889 | 23.89° C | 50% | 1007.2 hPa | 0 mm | 1.34 m/s, 338° | 553 W/m² | - |
| 1778003586 | 24.44° C | 50% | 1007.1 hPa | 0 mm | 1.79 m/s, 10° | 583 W/m² | - |
| 1778003283 | 25° C | 46% | 1007.3 hPa | 0 mm | 1.79 m/s, 75° | 600 W/m² | - |
| 1778002980 | 25° C | 48% | 1007.2 hPa | 0 mm | 2.68 m/s, 65° | 603 W/m² | - |
| 1778002676 | 24.44° C | 46% | 1007.2 hPa | 0 mm | 0.89 m/s, 207° | 673 W/m² | - |
| 1778002372 | 25° C | 49% | 1007.5 hPa | 0 mm | 0.89 m/s, 52° | 679 W/m² | - |
| 1778002069 | 24.44° C | 46% | 1007.4 hPa | 0 mm | 0.45 m/s, 0° | 728 W/m² | - |
| 1778001767 | 24.44° C | 48% | 1007.5 hPa | 0 mm | 2.24 m/s, 180° | 386 W/m² | - |
| 1778001466 | 23.89° C | 48% | 1007.3 hPa | 0 mm | 1.79 m/s, 152° | 694 W/m² | - |
| 1778001163 | 24.44° C | 47% | 1007.6 hPa | 0 mm | 0.89 m/s, 62° | 694 W/m² | - |
* Rain latest hour (hover to see other rain measurements)
** Current wind speed in m/s (hover to see current wind gust speed)